Location: Newark
(44.3449°N, 4.8694°E)
Time: 00:01:34
(UTC+00:00)

Envisat - Pass Details

Date: 25 January 2020
Orbit: 764 x 766 km, 98.1° (Epoch: 20 February)

Event Time Altitude Azimuth Distance (km) Brightness Sun altitude
Rises 19:08:44 0° 224° (SW) 3,222 6.9 -26.6°
Reaches altitude 10° 19:13:30 10° 264° (W) 2,305 6.5 -27.4°
Maximum altitude 19:14:19 10° 274° (W) 2,281 6.4 -27.5°
Drops below altitude 10° 19:15:09 10° 283° (WNW) 2,307 6.4 -27.7°
Sets 19:19:57 0° 324° (NW) 3,242 6.7 -28.6°
